Regional Weather Roundup
Issued by NWS

Home | Current Version | Previous Version | Text Only | Print | Product List | Glossary Off
Versions: 1 2 3 4 5 6 7 8 9 10 11 12 13 14 15 16 17 18 19 20 21 22 23 24 25 26 27 28 29 30 31 32 33 34 35 36 37 38 39 40 41 42 43 44 45 46 47 48 49 50

000
ASUS43 KDMX 251507
RWRIA

WEATHER ROUNDUP FOR IOWA
NATIONAL WEATHER SERVICE DES MOINES IA
900 AM CST TUE NOV 25 2014

NOTE: "FAIR" INDICATES FEW OR NO CLOUDS BELOW 12,000 FEET WITH NO
SIGNIFICANT WEATHER AND/OR OBSTRUCTIONS TO VISIBILITY.

* - THESE STATIONS ARE NOT NWS STATIONS...THUS NOT UNDER NWS
QUALITY CONTROL.  THEY ALSO DO NOT REPORT WEATHER SUCH
AS PRECIPITATION OR FOG.

IAZ001>003-012>014-020>022-031>034-043>046-251600-
   NORTHWEST IOWA

CITY           SKY/WX    TMP DP  RH WIND       PRES   REMARKS
CARROLL *      SUNNY     19   9  63 SW7       30.11S WCI  10
CHEROKEE *     SUNNY     18  12  79 S3        30.08S
DENISON *      SUNNY     19  10  68 SW6       30.09S WCI  11
LE MARS *      SUNNY     19  12  73 S6        30.08R WCI  11
ORANGE CITY *  SUNNY     18  10  73 S6        30.05R WCI   9
SHELDON *      SUNNY     18  10  73 S3        30.04R
SIOUX CITY     PTSUNNY   20  12  71 SE5       30.10S WCI  13
SPENCER        SUNNY     16   9  74 SW7       30.05F WCI   6
STORM LAKE *   SUNNY     18  10  73 W8        30.06F WCI   7
$$

IAZ055>058-069>071-079>083-090>094-251600-
   SOUTHWEST IOWA

CITY           SKY/WX    TMP DP  RH WIND       PRES   REMARKS
ATLANTIC *     SUNNY     21  10  63 SW7       30.13S WCI  13
AUDUBON *      SUNNY     19  10  68 SW6       30.11S WCI  11
CLARINDA *     SUNNY     23  16  74 W6        30.19R WCI  16
COUNCIL BLFS * SUNNY     23  12  63 SW5       30.12F WCI  17
CRESTON *      SUNNY     19  12  73 W9        30.13S WCI   9
HARLAN  *      SUNNY     21  12  68 SW5       30.16R WCI  15
LAMONI         SUNNY     22  13  68 W9        30.15R WCI  12
RED OAK *      SUNNY     23  12  63 SW6       30.16S WCI  16
SHENANDOAH *   SUNNY     23  14  68 SW7       30.18F WCI  15
$$

IAZ047>049-059>061-072>074-084-251600-
   CENTRAL IOWA

CITY           SKY/WX    TMP DP  RH WIND       PRES   REMARKS
AMES           SUNNY     20  11  68 W10       30.12R WCI   9
ANKENY *       SUNNY     21  12  68 W9        30.13R WCI  11
CHARITON *     SUNNY     21  12  68 NW7G14    30.13R WCI  13
DES MOINES     SUNNY     23  11  60 NW9       30.13S WCI  13
GRINNELL*      SUNNY     19  14  79 W9        30.11R WCI   9
KNOXVILLE *    SUNNY     21  12  68 NW12      30.12R WCI   9
MARSHALLTOWN   SUNNY     17  12  80 W12       30.09S WCI   4
PELLA *        SUNNY     23  14  68 W8        30.14R WCI  14
PERRY *          N/A     21  14  73 W6        30.13S WCI  14
$$

IAZ004>006-015-016-023>025-035-036-251600-
   NORTH CENTRAL IOWA

CITY           SKY/WX    TMP DP  RH WIND       PRES   REMARKS
ALGONA *       SUNNY     18  10  73 SW6       30.07S WCI   9
CLARION *      SUNNY     18  10  73 W9        30.08F WCI   6
ESTHERVILLE    SUNNY     15   7  70 SW7       30.03F WCI   5
FORT DODGE *   SUNNY     18   9  68 W5        30.10S WCI  11
MASON CITY     SUNNY     14   8  77 W7        30.07R WCI   4
FOREST CITY *  SUNNY     16  12  86 SW5       30.06R WCI   9
IOWA FALLS *     N/A     16  10  79 W6        30.09S WCI   7
$$

IAZ007>011-017>019-026>030-037>042-050>054-066-251600-
   NORTHEAST IOWA

CITY           SKY/WX    TMP DP  RH WIND       PRES   REMARKS
CEDAR RAPIDS   SUNNY     16  12  84 NW13      30.10R WCI   2
CHARLES CITY * SUNNY     12   7  79 W7        30.08R WCI   2
CLINTON *      SUNNY     16   9  73 W14       30.13R WCI   1
DECORAH *      MOSUNNY   12   7  79 VRB5      30.03S WCI   4
DUBUQUE        SUNNY     15  10  80 W10       30.06R WCI   2
MONTICELLO *   SUNNY     16  10  79 W8G14     30.09R WCI   5
OELWEIN *      SUNNY     12   9  85 W7        30.07S WCI   2
WATERLOO       SUNNY     15   9  76 W5        30.08F WCI   8
$$

IAZ064-065-067-068-078-251600-
   EAST CENTRAL IOWA

CITY           SKY/WX    TMP DP  RH WIND       PRES   REMARKS
DAVENPORT      CLOUDY    17  11  77 NW12      30.12R WCI   4
MT. PLEASANT * CLOUDY    21  16  79 W7        30.15R WCI  13
MUSCATINE *    MOSUNNY   19  12  73 NW12      30.15R WCI   7
QUAD CITIES    CLOUDY    19  13  77 W9        30.12R WCI   8
$$

IAZ062-063-075>077-085>089-095>099-251600-
   SOUTHEAST IOWA

CITY           SKY/WX    TMP DP  RH WIND       PRES   REMARKS
BURLINGTON     CLOUDY    23  18  81 W9        30.14R WCI  13
FAIRFIELD *    SUNNY     21  14  73 NW14      30.14R WCI   8
FORT MADISON * CLOUDY    25  21  86 NW10      30.15R WCI  15
KEOKUK *       CLOUDY    25  19  80 NW7       30.15R WCI  17
OSKALOOSA *      N/A     21  14  73 NW10      30.13R WCI  10
CENTERVILLE *  SUNNY     23  16  74 W6        30.16R WCI  16
OTTUMWA        SUNNY     22  14  71 NW10      30.13S WCI  11
WASHINGTON *   CLOUDY    21  19  93 W12       30.13R WCI   9
$$

ABBREVIATIONS USED IN REMARKS
   TC - TEMPERATURES IN CELSIUS
  WCI - WIND CHILL INDEX
   HX - HEAT INDEX
  VSB - VISIBILITY
$$




USA.gov is the U.S. government's official web portal to all federal, state and local government web resources and services.